This is the latest recevied weather packets stored in our database for station/object VE1UHF-4. If no packets are shown the sender has not sent any weather packets the latest 10 day(s).
| Time | Temp. | Humidity | Pressure | Rain* | Wind** | Luminosity | Snow |
|---|---|---|---|---|---|---|---|
| 1778132120 | 17.22° C | 78% | 1002.8 hPa | 0 mm | - | - | - |
| 1778131219 | 17.78° C | 78% | 1003.1 hPa | 0 mm | - | - | - |
| 1778130319 | 17.78° C | 78% | 1002.6 hPa | 0 mm | - | - | - |
| 1778129418 | 17.78° C | 78% | 1003.5 hPa | 0 mm | - | - | - |
| 1778128517 | 17.78° C | 77% | 1003.7 hPa | 0 mm | - | - | - |
| 1778127617 | 17.78° C | 77% | 1004.1 hPa | 0 mm | - | - | - |
| 1778126718 | 18.33° C | 77% | 1004.4 hPa | 0 mm | - | - | - |
| 1778125816 | 18.33° C | 77% | 1004.4 hPa | 0 mm | - | - | - |
| 1778124915 | 18.33° C | 77% | 1004.8 hPa | 0 mm | - | - | - |
| 1778124015 | 18.33° C | 77% | 1005 hPa | 0 mm | - | - | - |
| 1778123115 | 18.89° C | 77% | 1005.4 hPa | 0 mm | - | - | - |
| 1778122214 | 18.89° C | 77% | 1005.6 hPa | 0 mm | - | - | - |
| 1778121313 | 18.89° C | 77% | 1006.2 hPa | 0 mm | - | - | - |
| 1778120412 | 19.44° C | 77% | 1006.2 hPa | 0 mm | - | - | - |
| 1778119515 | 19.44° C | 76% | 1006.4 hPa | 0 mm | - | - | - |
| 1778118611 | 19.44° C | 75% | 1006.6 hPa | 0 mm | - | - | - |
| 1778117711 | 19.44° C | 75% | 1006.9 hPa | 0 mm | - | - | - |
| 1778116810 | 20° C | 74% | 1007 hPa | 0 mm | - | - | - |
| 1778115910 | 20.56° C | 73% | 1007.1 hPa | 0 mm | - | - | - |
| 1778115010 | 20.56° C | 73% | 1007.4 hPa | 0 mm | - | - | - |
| 1778113209 | 21.67° C | 71% | 1007.2 hPa | 0 mm | - | - | - |
| 1778112308 | 22.22° C | 71% | 1007.3 hPa | 0 mm | - | - | - |
| 1778111407 | 22.78° C | 71% | 1007.1 hPa | 0 mm | - | - | - |
| 1778109602 | 21.67° C | 75% | 1006.5 hPa | 0 mm | - | - | - |
| 1778108702 | 21.67° C | 74% | 1006.6 hPa | 0 mm | - | - | - |
* Rain since midnight (hover to see other rain measurements)
** Current wind speed in m/s (hover to see current wind gust speed)